Other Public Products
Issued by NWS Grand Forks, ND

Home | Current Version | Previous Version | Graphics & Text | Print | Product List | Glossary On
Versions: 1 2 3 4 5 6 7 8 9 10 11 12 13 14 15 16 17 18 19 20 21 22 23 24 25 26 27 28 29 30 31 32 33 34 35 36 37 38 39 40 41 42 43 44 45 46 47 48 49 50
000
FPUS83 KFGF 050510
OPUFGF
PRAIRIE TO PINES WEATHER ROUNDUP
NATIONAL WEATHER SERVICE EASTERN NORTH DAKOTA/GRAND FORKS ND
1200 AM CDT SUN JUL 05 2015

 **SATELLITE DATA USED TO AUGMENT SKY COVER AT AUTOMATED STATIONS**
 *****  WEATHER ACROSS EASTERN NORTH DAKOTA  *****

CITY           SKY/WX    TMP DP  RH WIND       PRES   REMARKS
GRAND FORKS    CLOUDY    75  67  76 S10       29.71R
GRAND FORKS AF CLOUDY    76  68  75 S9        29.71S
GRAND CITY NWS   N/A     73 N/A N/A S9          N/A
BUXTON         NOT AVBL
DEVILS LAKE    CLOUDY    68  57  68 E10       29.75R
FARGO          MOCLDY    75  65  70 S14       29.75F
WAHPETON ARPT  MOCLDY    70  63  78 SE13      29.78F
$$

 *****  WEATHER ACROSS CENTRAL AND WESTERN NORTH DAKOTA  *****

CITY           SKY/WX    TMP DP  RH WIND       PRES   REMARKS
JAMESTOWN      PTCLDY    73  67  81 S8        29.74F
BISMARCK       CLEAR     76  69  79 S6        29.71F
MINOT          CLEAR     66  62  87 N10       29.74R
MINOT AFB      CLEAR     65  65 100 N10       29.74R
GARRISON         N/A     67  63  87 N3        29.73F
WILLISTON      CLEAR     71  62  73 N14       29.78F
DICKINSON      CLEAR     68  64  87 NE6       29.77R FOG
HETTINGER      PTCLDY    66  63  90 CALM      29.79R FOG
$$

 *****  OTHER OBSERVATIONS NORTHEAST NORTH DAKOTA  *****

CITY           SKY/WX    TMP DP  RH WIND       PRES   REMARKS
WALHALLA       TSTM      66  66 100 MISG      29.76F
LANGDON        FAIR      66  64  94 N9G17     29.76F
CAVALIER       TSTM      66  64  94 CALM      29.78R
GRAFTON        FAIR      75  68  78 S7        29.72R
CANDO          FAIR      66  63  88 E8        29.76R
FORT TOTTEN      N/A     65  64  96 NE3       29.95S
ROLLA          FAIR      63  63 100 N12       29.79R
RUGBY          NOT AVBL
 ***** THE ABOVE OBSERVATIONS ARE NON NWS ARE NOT QUALITY
        CONTROLLED AND MAY MIS-REPORT RAIN FOR SNOW...
$$

 *****  OTHER OBSERVATIONS SOUTHEAST NORTH DAKOTA *****

CITY           SKY/WX    TMP DP  RH WIND       PRES   REMARKS
COOPERSTOWN    NOT AVBL
VALLEY CITY    FAIR      73  72  94 S12       29.75F
OAKES            N/A     72  70  94 S10       29.76F
GWINNER        FAIR      73  68  83 S9        29.77F
BUFFALO        NOT AVBL
WYNDMERE       NOT AVBL
 ***** THE ABOVE OBSERVATIONS ARE NON NWS ARE NOT QUALITY
       CONTROLLED AND MAY MIS-REPORT RAIN FOR SNOW...
$$

  *****  WEATHER ACROSS NORTHERN MINNESOTA  *****

CITY           SKY/WX    TMP DP  RH WIND       PRES   REMARKS
FLAG ISLAND    NOT AVBL
WARROAD        DRIZZLE   64  61  88 E13       29.82F
ROSEAU         CLOUDY    63  57  82 E10       29.79S
HALLOCK        CLOUDY    66  63  88 E21G33    29.72R
THF RVR FALLS  MOCLDY    72  64  78 S8        29.77R
HALSTAD        NOT AVBL
FOSSTON        MOCLDY    72  63  73 S10       29.80R
BAUDETTE       LGT RAIN  63  60  90 E8        29.85F
WASKISH        CLOUDY    70  64  83 NE3       29.83R HAZE
CROOKSTON      MOCLDY    75  64  69 S16       29.75R
$$
  *****  WEATHER ACROSS CENTRAL AND WEST MINNESOTA  *****

CITY           SKY/WX    TMP DP  RH WIND       PRES   REMARKS
BEMIDJI        MOCLDY    72  65  79 S8        29.81F
PARK RAPIDS    PTCLDY    72  64  76 S12       29.82F
WADENA         PTCLDY    70  63  78 S8        29.85F
DETROIT LAKES  MOCLDY    73  63  68 S10G18    29.82F
MOORHEAD       PTCLDY    73  64  73 S13       29.77F
FERGUS FALLS   PTCLDY    72  63  73 S12       29.81F
ELBOW LAKE     FAIR      71  65  81 SE10      29.84F
MORRIS MN      CLEAR     70  64  83 SE8       29.84F HAZE
STAPLES        CLEAR     70  64  83 S7        29.86F
WHEATON        PTCLDY    70  63  78 SE13      29.82F
$$
  *****  WEATHER ELSEWHERE ACROSS MINNESOTA  *****

CITY           SKY/WX    TMP DP  RH WIND       PRES   REMARKS
DULUTH         PTCLDY    61  55  81 E7        29.94F
INTRNTL FALLS  CLOUDY    71  61  70 VRB3      29.84R HAZE
ELY            PTCLDY    61  52  72 S5        29.92F
CLOQUET        PTCLDY    59  55  88 CALM      29.94S
BRAINERD       PTCLDY    69  65  86 S7        29.89F FOG
HIBBING        PTCLDY    61  57  87 SE5       29.90F
ALEXANDRIA     CLEAR     70  64  81 S8        29.89F
SAINT CLOUD    CLEAR     68  64  87 SE6       29.91S FOG
MINNEAPOLIS    CLEAR     74  61  63 S8        29.95R
$$

  *****  WEATHER ACROSS SOUTH DAKOTA  *****

CITY           SKY/WX    TMP DP  RH WIND       PRES   REMARKS
SIOUX FALLS    PTCLDY    72  63  73 S12       29.90S
BROOKINGS      PTCLDY    70  63  78 SE12      29.89F
WATERTOWN      MOCLDY    71  65  81 SE10      29.84F
HURON          CLOUDY    73  66  78 S15G24    29.78F
SISSETON         N/A     72  65  78 S10       29.78F
ABERDEEN       MOCLDY    74  67  78 SE16      29.77F THUNDER
MITCHELL       CLOUDY    73  66  78 S16G24    29.82F
PIERRE         MOCLDY    81  67  62 SW7       29.73R
MOBRIDGE       CLEAR     76  71  85 SE13      29.72F
RAPID CITY     CLEAR     69  63  81 W5        29.82S HAZE
$$

  *****  SOME WEATHER IN NEARBY STATES *****

CITY           SKY/WX    TMP DP  RH WIND       PRES   REMARKS
GLASGOW MT     CLEAR     70  53  54 E18       29.77F
GREAT FALLS MT PTCLDY    68  51  54 N12       29.81R
CHEYENNE WY    MOCLDY    68  52  56 W8        30.04S
SCOTTSBLUFF NE MOCLDY    72  62  71 E6        29.88S
OMAHA NE       CLEAR     72  62  71 S9        29.95S
DES MOINES IA  PTCLDY    69  60  73 S6        29.99R
DAVENPORT IA   CLEAR     64  60  87 S5        30.03R FOG
CHICAGO IL     PTCLDY    67  57  70 CALM      30.03S SMOKE
EAU CLAIRE WI  CLEAR     69  64  84 S3        29.96R HAZE
LA CROSSE WI   CLEAR     70  66  87 S5        29.97R
$$

  *****  SOME NATIONAL WEATHER *****

CITY           SKY/WX    TMP DP  RH WIND       PRES   REMARKS
LA GUARDIA NY  MOCLDY    71  60  68 SW5       30.03R
RALEIGH NC     MOCLDY    74  69  85 SW5       30.06R
ATLANTA GA     CLOUDY    71  67  87 S5        30.07F
NEW ORLEANS LA PTCLDY    79  71  76 CALM      30.09R
OKLAHOMA CITY  MOCLDY    74  70  87 SE14      29.97R
ALBUQUERQUE NM CLOUDY    72  59  63 E6        30.15R
SALT LAKE CITY CLOUDY    82  56  40 NE5       29.95R
LOS ANGELES CA CLOUDY    63  59  87 W9        29.93R
BOISE ID       CLOUDY    86  40  19 S3        29.76R
SEATTLE WA     PTCLDY    81  42  25 N6        29.80R
$$

*** WEATHER ACROSS MANITOBA...SASKATCHEWAN AND ONTARIO ***
                ***ONTARIO***

CITY           SKY/WX    TMP DP  RH WIND       PRES   REMARKS
GERALDTON      MOCLDY    55  50  82 S5        29.95S
THUNDER BAY    CLEAR     54  54 100 NW2       29.96F
SIOUX LOOKOUT  CLOUDY    70  57  64 S9        29.77F
TORONTO        PTCLDY    66  55  68 NW7       30.04R
BIG TROUT LK   LGT RAIN  63  63 100 VRB2      29.66F FOG
PICKLE LAKE    NOT AVBL
DRYDEN         LGT RAIN  68  63  83 SW14G25   29.78F
KENORA         LGT RAIN  63  61  94 SE8       29.76F
$$
                *** MANITOBA***

CITY           SKY/WX    TMP DP  RH WIND       PRES   REMARKS
BRANDON        PTCLDY    61  61 100 CALM      29.78F
DAUPHIN        CLOUDY    55  54  94 W6        29.79F FOG
ISLAND LAKE    CLOUDY    59  55  88 CALM      29.67R
PILOT MOUND      N/A    N/A N/A N/A N7          N/A
THE PAS        SMOKE     59  52  77 SW7       29.76S VSB 3/4
THOMPSON       LGT RAIN  52  50  93 N9        29.68R
WINNIPEG       MOCLDY    64  64 100 NW6       29.75R
LYNN LAKE      CLOUDY    45  43  93 N10G17    29.77R
CHURCHILL      LGT RAIN  43  41  93 E25G39    29.71R FOG
GILLAM         CLOUDY    57  54  88 W15G21    29.59R SMOKE
$$
                ***SASKATCHEWAN***

CITY           SKY/WX    TMP DP  RH WIND       PRES   REMARKS
ESTEVAN        PTCLDY    63  61  94 N6        29.80F
KINDERSLEY     LGT RAIN  55  54  94 SW3       29.96F
LLOYDMINSTER   PTCLDY    52  46  82 W7        29.96S
PRINCE ALBERT  MOCLDY    55  48  76 W6        29.88R
REGINA         MOCLDY    63  63 100 N8        29.84S SMOKE
YORKTON        CLOUDY    57  54  88 N5        29.84F FOG



USA.gov is the U.S. government's official web portal to all federal, state and local government web resources and services.